timestamp,wind_dir_avg,wind_spd_avg,wind_spd_max_dir,wind_spd_gust,battery_voltage,lat,long
2022-07-04 00:04:00+00:00,200.0,7.81,200.0,8.4,12.73,47.59359,-54.27349
2022-07-04 00:14:00+00:00,202.0,7.74,206.0,8.74,12.49,47.59359,-54.27349
2022-07-04 00:24:00+00:00,208.0,6.23,207.0,6.98,12.49,47.59359,-54.27349
2022-07-04 00:34:00+00:00,222.0,8.23,233.0,11.29,12.49,47.59359,-54.27349
2022-07-04 00:44:00+00:00,219.0,9.63,231.0,12.03,12.49,47.59359,-54.27349
2022-07-04 00:54:00+00:00,223.0,10.0,230.0,11.98,12.49,47.59359,-54.27349
2022-07-04 01:04:00+00:00,212.0,7.64,215.0,8.56,12.49,47.59359,-54.27349
2022-07-04 01:14:01+00:00,209.0,5.98,214.0,7.12,12.41,47.59359,-54.27349
2022-07-04 01:24:01+00:00,213.0,7.59,217.0,8.79,12.41,47.59359,-54.27349
2022-07-04 01:34:01+00:00,214.0,5.69,214.0,6.15,12.41,47.59359,-54.27349
2022-07-04 01:44:01+00:00,211.0,6.23,210.0,6.76,12.41,47.59359,-54.27349
2022-07-04 01:54:01+00:00,209.0,5.5,213.0,5.99,12.41,47.59359,-54.27349
2022-07-04 02:04:01+00:00,218.0,5.39,222.0,5.94,12.41,47.59359,-54.27349
2022-07-04 02:14:01+00:00,218.0,4.81,217.0,5.41,12.41,47.59359,-54.27349
2022-07-04 02:24:01+00:00,173.0,4.48,160.0,4.93,12.41,47.59359,-54.27349
2022-07-04 02:34:01+00:00,187.0,4.28,211.0,5.11,12.41,47.59359,-54.27349
2022-07-04 02:44:01+00:00,177.0,4.92,195.0,5.22,12.41,47.59359,-54.27349
2022-07-04 02:54:01+00:00,171.0,4.06,159.0,4.47,12.41,47.59359,-54.27349
2022-07-04 03:04:01+00:00,173.0,4.53,163.0,5.13,12.41,47.59359,-54.27349
2022-07-04 03:14:01+00:00,172.0,3.93,153.0,4.39,12.33,47.59359,-54.27349
2022-07-04 03:24:01+00:00,171.0,4.22,156.0,4.75,12.33,47.59359,-54.27349
2022-07-04 03:34:01+00:00,173.0,3.97,157.0,4.47,12.33,47.59359,-54.27349
2022-07-04 03:44:01+00:00,190.0,4.14,189.0,4.55,12.33,47.59359,-54.27349
2022-07-04 03:54:01+00:00,191.0,5.05,191.0,5.47,12.33,47.59359,-54.27349
2022-07-04 04:04:01+00:00,183.0,5.22,193.0,5.9,12.33,47.59359,-54.27349
2022-07-04 04:14:01+00:00,180.0,5.33,171.0,5.81,12.33,47.59359,-54.27349
2022-07-04 04:24:01+00:00,188.0,4.71,190.0,5.42,12.33,47.59359,-54.27349
2022-07-04 04:34:01+00:00,182.0,4.72,191.0,5.11,12.33,47.59359,-54.27349
2022-07-04 04:44:01+00:00,174.0,4.66,168.0,5.5,12.33,47.59359,-54.27349
2022-07-04 04:54:01+00:00,175.0,4.32,155.0,5.26,12.33,47.59359,-54.27349
2022-07-04 05:04:01+00:00,166.0,4.32,154.0,4.9,12.33,47.59359,-54.27349
2022-07-04 05:14:01+00:00,172.0,4.22,170.0,4.68,12.17,47.59359,-54.27349
2022-07-04 05:24:01+00:00,182.0,5.09,209.0,6.21,12.17,47.59359,-54.27349
2022-07-04 05:34:01+00:00,213.0,5.1,220.0,5.71,12.17,47.59359,-54.27349
2022-07-04 05:44:01+00:00,219.0,4.94,215.0,5.72,12.17,47.59359,-54.27349
2022-07-04 05:54:01+00:00,220.0,4.06,221.0,5.0,12.17,47.59359,-54.27349
2022-07-04 06:04:01+00:00,229.0,4.78,231.0,5.29,12.17,47.59359,-54.27349
2022-07-04 06:14:00+00:00,177.0,3.07,215.0,4.15,12.33,47.59359,-54.27349
2022-07-04 06:24:00+00:00,214.0,3.73,224.0,4.35,12.33,47.59359,-54.27349
2022-07-04 06:34:00+00:00,214.0,2.77,229.0,3.97,12.33,47.59359,-54.27349
2022-07-04 06:44:00+00:00,155.0,3.1,173.0,4.11,12.33,47.59359,-54.27349
2022-07-04 06:54:00+00:00,156.0,4.73,145.0,5.29,12.33,47.59359,-54.27349
2022-07-04 07:04:00+00:00,173.0,3.06,200.0,3.53,12.33,47.59359,-54.27349
2022-07-04 07:14:00+00:00,178.0,2.43,170.0,2.84,12.25,47.59359,-54.27349
2022-07-04 07:24:00+00:00,146.0,1.27,115.0,2.22,12.25,47.59359,-54.27349
2022-07-04 07:34:00+00:00,185.0,0.51,105.0,1.71,12.25,47.59359,-54.27349
2022-07-04 07:44:00+00:00,202.0,2.23,204.0,2.55,12.25,47.59359,-54.27349
2022-07-04 07:54:00+00:00,184.0,2.13,189.0,2.44,12.25,47.59359,-54.27349
2022-07-04 08:04:00+00:00,173.0,3.69,175.0,4.24,12.25,47.59359,-54.27349
2022-07-04 08:14:00+00:00,194.0,3.57,193.0,3.95,12.25,47.59359,-54.27349
2022-07-04 08:24:00+00:00,184.0,2.96,186.0,3.1,12.25,47.59359,-54.27349
2022-07-04 08:34:00+00:00,188.0,3.29,200.0,3.77,12.25,47.59359,-54.27349
2022-07-04 08:44:00+00:00,186.0,3.95,195.0,4.43,12.25,47.59359,-54.27349
2022-07-04 08:54:00+00:00,189.0,5.77,190.0,6.29,12.25,47.59359,-54.27349
2022-07-04 09:04:00+00:00,185.0,5.85,199.0,6.81,12.25,47.59359,-54.27349
2022-07-04 09:14:01+00:00,186.0,5.55,196.0,6.08,12.33,47.59359,-54.27349
2022-07-04 09:24:01+00:00,213.0,6.77,213.0,7.36,12.33,47.59359,-54.27349
2022-07-04 09:34:01+00:00,225.0,5.84,221.0,6.68,12.33,47.59359,-54.27349
2022-07-04 09:44:01+00:00,230.0,6.3,244.0,9.86,12.33,47.59359,-54.27349
2022-07-04 09:54:01+00:00,214.0,5.07,216.0,5.63,12.33,47.59359,-54.27349
2022-07-04 10:04:01+00:00,215.0,3.68,220.0,4.26,12.33,47.59359,-54.27349
2022-07-04 10:14:01+00:00,200.0,3.93,216.0,4.62,12.65,47.59359,-54.27349
2022-07-04 10:24:01+00:00,214.0,2.99,228.0,3.76,12.65,47.59359,-54.27349
2022-07-04 10:34:01+00:00,162.0,2.89,144.0,3.5,12.65,47.59359,-54.27349
2022-07-04 10:44:01+00:00,189.0,3.11,188.0,3.38,12.65,47.59359,-54.27349
2022-07-04 10:54:01+00:00,184.0,2.32,140.0,2.79,12.65,47.59359,-54.27349
2022-07-04 11:04:01+00:00,199.0,1.35,130.0,2.03,12.65,47.59359,-54.27349
2022-07-04 11:14:00+00:00,178.0,2.81,179.0,2.97,13.21,47.59359,-54.27349
2022-07-04 11:24:00+00:00,181.0,3.4,180.0,3.65,13.21,47.59359,-54.27349
2022-07-04 11:34:00+00:00,178.0,3.32,178.0,3.67,13.21,47.59359,-54.27349
2022-07-04 11:44:00+00:00,190.0,3.16,190.0,3.43,13.21,47.59359,-54.27349
2022-07-04 11:54:00+00:00,190.0,3.74,189.0,4.1,13.21,47.59359,-54.27349
2022-07-04 12:04:00+00:00,185.0,3.73,185.0,3.91,13.21,47.59359,-54.27349
2022-07-04 12:14:00+00:00,191.0,3.65,190.0,3.88,13.53,47.59359,-54.27349
2022-07-04 12:24:00+00:00,187.0,3.93,188.0,4.04,13.53,47.59359,-54.27349
2022-07-04 12:34:00+00:00,179.0,4.56,181.0,4.81,13.53,47.59359,-54.27349
2022-07-04 12:44:00+00:00,171.0,3.91,172.0,4.1,13.53,47.59359,-54.27349
2022-07-04 12:54:00+00:00,176.0,3.91,177.0,4.29,13.53,47.59359,-54.27349
2022-07-04 13:04:00+00:00,196.0,3.45,194.0,3.96,13.53,47.59359,-54.27349
2022-07-04 13:14:01+00:00,192.0,3.33,192.0,3.84,13.6,47.59359,-54.27349
2022-07-04 13:24:01+00:00,201.0,3.19,209.0,3.59,13.6,47.59359,-54.27349
2022-07-04 13:34:01+00:00,203.0,2.99,205.0,3.52,13.6,47.59359,-54.27349
2022-07-04 13:44:01+00:00,202.0,4.84,207.0,5.16,13.6,47.59359,-54.27349
2022-07-04 13:54:01+00:00,208.0,3.95,210.0,4.42,13.6,47.59359,-54.27349
2022-07-04 14:04:01+00:00,215.0,4.09,214.0,4.36,13.6,47.59359,-54.27349
2022-07-04 14:14:00+00:00,219.0,4.93,217.0,5.34,13.92,47.59359,-54.27349
2022-07-04 14:24:00+00:00,208.0,3.96,214.0,5.17,13.92,47.59359,-54.27349
2022-07-04 14:34:00+00:00,227.0,3.96,224.0,4.45,13.92,47.59359,-54.27349
2022-07-04 14:44:00+00:00,214.0,4.04,213.0,5.11,13.92,47.59359,-54.27349
2022-07-04 14:54:00+00:00,201.0,6.17,204.0,7.25,13.92,47.59359,-54.27349
2022-07-04 15:04:00+00:00,204.0,5.65,201.0,6.12,13.92,47.59359,-54.27349
2022-07-04 15:14:01+00:00,204.0,6.1,201.0,6.94,13.84,47.59359,-54.27349
2022-07-04 15:24:01+00:00,213.0,6.28,209.0,7.22,13.84,47.59359,-54.27349
2022-07-04 15:34:01+00:00,213.0,7.47,222.0,8.83,13.84,47.59359,-54.27349
2022-07-04 15:44:01+00:00,213.0,10.31,224.0,12.32,13.84,47.59359,-54.27349
2022-07-04 15:54:01+00:00,212.0,9.61,219.0,12.69,13.84,47.59359,-54.27349
2022-07-04 16:04:01+00:00,220.0,10.61,221.0,12.28,13.84,47.59359,-54.27349
2022-07-04 16:14:00+00:00,219.0,12.29,222.0,13.65,14.24,47.59359,-54.27349
2022-07-04 16:24:00+00:00,228.0,11.21,227.0,12.74,14.24,47.59359,-54.27349
2022-07-04 16:34:00+00:00,222.0,11.78,227.0,13.06,14.24,47.59359,-54.27349
2022-07-04 16:44:00+00:00,208.0,9.55,221.0,11.39,14.24,47.59359,-54.27349
2022-07-04 16:54:00+00:00,203.0,9.24,202.0,10.15,14.24,47.59359,-54.27349
2022-07-04 17:04:00+00:00,214.0,9.9,220.0,12.34,14.24,47.59359,-54.27349
2022-07-04 17:14:00+00:00,216.0,10.01,223.0,11.75,14.24,47.59359,-54.27349
2022-07-04 17:24:00+00:00,213.0,10.61,231.0,13.04,14.24,47.59359,-54.27349
2022-07-04 17:34:00+00:00,223.0,9.33,232.0,11.68,14.24,47.59359,-54.27349
2022-07-04 17:44:00+00:00,227.0,11.27,233.0,12.9,14.24,47.59359,-54.27349
2022-07-04 17:54:00+00:00,219.0,11.02,225.0,12.98,14.24,47.59359,-54.27349
2022-07-04 18:04:00+00:00,218.0,10.19,224.0,12.05,14.24,47.59359,-54.27349
2022-07-04 18:14:01+00:00,214.0,9.51,229.0,11.77,13.44,47.59359,-54.27349
2022-07-04 18:24:01+00:00,208.0,7.94,223.0,9.76,13.44,47.59359,-54.27349
2022-07-04 18:34:01+00:00,205.0,8.1,213.0,10.11,13.44,47.59359,-54.27349
2022-07-04 18:44:01+00:00,204.0,9.18,217.0,10.68,13.44,47.59359,-54.27349
2022-07-04 18:54:01+00:00,207.0,9.04,222.0,11.51,13.44,47.59359,-54.27349
2022-07-04 19:04:01+00:00,208.0,9.47,223.0,12.09,13.44,47.59359,-54.27349
2022-07-04 19:14:01+00:00,206.0,8.97,221.0,12.02,13.68,47.59359,-54.27349
2022-07-04 19:24:01+00:00,209.0,9.24,224.0,10.99,13.68,47.59359,-54.27349
2022-07-04 19:34:01+00:00,216.0,9.5,228.0,11.52,13.68,47.59359,-54.27349
2022-07-04 19:44:01+00:00,218.0,8.87,228.0,11.28,13.68,47.59359,-54.27349
2022-07-04 19:54:01+00:00,212.0,7.89,225.0,9.64,13.68,47.59359,-54.27349
2022-07-04 20:04:01+00:00,207.0,8.27,221.0,9.84,13.68,47.59359,-54.27349
2022-07-04 20:14:00+00:00,181.0,6.63,198.0,7.78,13.68,47.59359,-54.27349
2022-07-04 20:24:00+00:00,205.0,7.69,216.0,9.11,13.68,47.59359,-54.27349
2022-07-04 20:34:00+00:00,201.0,7.76,203.0,8.25,13.68,47.59359,-54.27349
2022-07-04 20:44:00+00:00,201.0,7.52,202.0,8.56,13.68,47.59359,-54.27349
2022-07-04 20:54:00+00:00,200.0,6.59,203.0,7.57,13.68,47.59359,-54.27349
2022-07-04 21:04:00+00:00,202.0,6.21,208.0,7.24,13.68,47.59359,-54.27349
2022-07-04 21:14:00+00:00,240.0,4.59,244.0,5.61,13.6,47.59359,-54.27349
2022-07-04 21:24:00+00:00,203.0,5.9,213.0,6.96,13.6,47.59359,-54.27349
2022-07-04 21:34:00+00:00,251.0,8.58,256.0,10.21,13.6,47.59359,-54.27349
2022-07-04 21:44:00+00:00,258.0,10.26,258.0,14.05,13.6,47.59359,-54.27349
2022-07-04 21:54:00+00:00,237.0,5.28,242.0,6.07,13.6,47.59359,-54.27349
2022-07-04 22:04:00+00:00,232.0,8.23,231.0,9.79,13.6,47.59359,-54.27349
2022-07-04 22:14:00+00:00,235.0,7.41,238.0,8.08,13.44,47.59359,-54.27349
2022-07-04 22:24:00+00:00,233.0,8.61,230.0,9.73,13.44,47.59359,-54.27349
2022-07-04 22:34:00+00:00,234.0,9.34,238.0,10.6,13.44,47.59359,-54.27349
2022-07-04 22:44:00+00:00,239.0,9.55,242.0,12.34,13.44,47.59359,-54.27349
2022-07-04 22:54:00+00:00,246.0,9.35,253.0,12.87,13.44,47.59359,-54.27349
2022-07-04 23:04:00+00:00,231.0,6.6,235.0,8.18,13.44,47.59359,-54.27349
2022-07-04 23:14:00+00:00,232.0,8.14,231.0,9.1,13.13,47.59359,-54.27349
2022-07-04 23:24:00+00:00,230.0,7.71,225.0,8.62,13.13,47.59359,-54.27349
2022-07-04 23:34:00+00:00,229.0,8.46,225.0,9.75,13.13,47.59359,-54.27349
2022-07-04 23:44:00+00:00,230.0,7.31,224.0,8.47,13.13,47.59359,-54.27349
2022-07-04 23:54:00+00:00,227.0,8.11,220.0,9.4,13.13,47.59359,-54.27349
